OK6DJ-6 Weather Reports


time (UTC)temp
C
wind
direction
speed
KPH
gust
KPH
rain 1hr
cm
rain 24hr
cm
rain mn
cm
humidity
%
barometer
mb
20260903084601 27 0 1.6 3.2 0.00 0.03 0.00 33 1021.0
20260903083601 27 0 1.6 1.6 0.00 0.03 0.00 35 1021.0
20260903082601 31 0 0.0 1.6 0.00 0.03 0.00 29 1021.5
20260903081601 30 0 1.6 1.6 0.00 0.03 0.00 30 1021.4
20260903080601 27 0 1.6 1.6 0.00 0.03 0.00 33 1021.2
20260903075601 27 0 1.6 3.2 0.00 0.03 0.00 32 1021.4
20260903073601 27 0 0.0 1.6 0.00 0.03 0.00 38 1021.5
20260903072601 26 0 0.0 1.6 0.00 0.03 0.00 42 1021.6
20260903071601 25 0 1.6 1.6 0.00 0.03 0.00 44 1021.4
20260903070601 23 0 0.0 1.6 0.00 0.03 0.00 48 1021.5
20260903065601 21 0 0.0 1.6 0.00 0.03 0.00 53 1021.5
20260903064601 21 0 0.0 1.6 0.00 0.03 0.00 58 1021.6
20260903063601 18 0 0.0 1.6 0.00 0.03 0.00 64 1021.5
20260903061601 16 0 0.0 0.0 0.00 0.03 0.00 73 1021.4
20260903054601 18 0 0.0 0.0 0.00 0.03 0.00 66 1021.1
20260903052601 16 0 0.0 0.0 0.00 0.03 0.00 76 1021.0
20260903051601 14 0 0.0 0.0 0.00 0.03 0.00 83 1021.0
20260903050601 12 0 0.0 0.0 0.00 0.03 0.00 90 1020.9
20260903045601 12 0 0.0 0.0 0.00 0.03 0.00 91 1020.8
20260903044601 12 0 0.0 0.0 0.00 0.03 0.00 91 1020.9
20260903043601 12 0 0.0 0.0 0.00 0.03 0.00 91 1020.9
20260903042601 13 0 0.0 0.0 0.00 0.03 0.00 90 1020.9
20260903041601 13 0 0.0 0.0 0.00 0.03 0.00 89 1021.0
20260903040601 13 0 0.0 0.0 0.00 0.03 0.00 88 1020.8
20260903035601 13 0 0.0 0.0 0.00 0.03 0.00 88 1020.7
20260903034601 13 0 0.0 0.0 0.00 0.03 0.00 87 1020.7
20260903033601 13 0 0.0 0.0 0.00 0.03 0.00 88 1020.7
20260903032601 13 0 0.0 0.0 0.00 0.03 0.00 88 1020.7
20260903031601 13 0 0.0 0.0 0.00 0.03 0.00 87 1020.7
20260903030601 13 0 0.0 0.0 0.00 0.03 0.00 88 1020.7
20260903025601 14 0 0.0 0.0 0.00 0.03 0.00 86 1020.7
20260903024601 14 0 0.0 0.0 0.00 0.03 0.00 86 1020.6
20260903023601 14 0 0.0 0.0 0.00 0.03 0.00 85 1020.6
20260903022601 14 0 0.0 0.0 0.00 0.03 0.00 84 1020.5
20260903021601 15 0 0.0 0.0 0.00 0.03 0.00 83 1020.5
20260903020601 14 0 0.0 0.0 0.00 0.03 0.00 84 1020.5
20260903015601 14 0 0.0 0.0 0.00 0.03 0.00 85 1020.4
20260903014601 15 0 0.0 0.0 0.00 0.03 0.00 83 1020.5
20260903013601 15 0 0.0 0.0 0.00 0.03 0.00 84 1020.5
20260903012601 15 0 0.0 0.0 0.00 0.03 0.00 83 1020.5
20260903011601 15 0 0.0 0.0 0.00 0.03 0.00 83 1020.5
20260903010601 15 0 0.0 0.0 0.00 0.03 0.00 83 1020.4
20260903005601 15 0 0.0 0.0 0.00 0.03 0.00 82 1020.4
20260903004601 15 0 0.0 0.0 0.00 0.03 0.00 84 1020.5
20260903003601 15 0 0.0 0.0 0.00 0.03 0.00 81 1020.4
20260903002601 15 0 0.0 0.0 0.00 0.03 0.00 82 1020.4
20260903001601 15 0 0.0 0.0 0.00 0.03 0.00 83 1020.5
20260903000601 15 0 0.0 0.0 0.00 0.03 0.00 82 1020.4
20260902235601 15 0 0.0 0.0 0.00 0.03 0.00 81 1020.4
20260902234601 15 0 0.0 0.0 0.00 0.03 0.00 82 1020.4
20260902233601 15 0 0.0 0.0 0.00 0.03 0.00 82 1020.5
20260902232601 15 0 0.0 0.0 0.00 0.03 0.00 80 1020.5
20260902231601 15 0 0.0 0.0 0.00 0.03 0.00 82 1020.5
20260902230601 15 0 0.0 0.0 0.00 0.03 0.00 80 1020.5
20260902225601 15 0 0.0 0.0 0.00 0.03 0.00 80 1020.5
20260902224601 15 0 0.0 0.0 0.00 0.03 0.00 81 1020.5
20260902222601 15 0 0.0 0.0 0.00 0.03 0.00 79 1020.7
20260902221601 15 0 0.0 0.0 0.00 0.03 0.00 80 1020.6
20260902220601 15 0 0.0 0.0 0.00 0.03 0.00 79 1020.5
20260902215601 14 0 0.0 0.0 0.00 0.03 0.00 80 1020.5
20260902214601 14 0 0.0 0.0 0.00 0.03 0.00 81 1020.5
20260902213601 14 0 0.0 0.0 0.00 0.03 0.00 81 1020.4
20260902212601 15 0 0.0 0.0 0.00 0.03 0.00 80 1020.4
20260902210601 15 0 0.0 0.0 0.00 0.03 0.00 80 1020.2
20260902205601 15 0 0.0 0.0 0.00 0.03 0.00 80 1020.2
20260902204601 15 0 0.0 0.0 0.00 0.03 0.00 76 1020.1
20260902203601 15 0 0.0 0.0 0.00 0.03 0.00 75 1020.0
20260902202601 15 0 0.0 0.0 0.00 0.03 0.00 76 1020.0
20260902200601 15 0 0.0 0.0 0.03 0.03 0.00 77 1019.9
20260902195601 16 0 0.0 0.0 0.03 0.03 0.00 72 1019.8
20260902194601 16 0 0.0 0.0 0.03 0.03 0.00 73 1019.7
20260902193601 16 0 0.0 0.0 0.03 0.03 0.00 75 1019.7
20260902192601 16 0 0.0 0.0 0.03 0.03 0.00 73 1019.7
20260902191601 16 0 0.0 0.0 0.03 0.03 0.00 74 1019.6
20260902190558 17 13 0.0 0.0 0.00 0.00 0.00 73 1019.7
20260902190234 16 11 0.0 0.0 0.00 0.00 0.00 72 1019.6
20260902185822 16 12 0.0 0.0 0.00 0.00 0.00 72 1019.5
20260902185400 0 11 0.0 0.0 0.00 0.00 0.00 100 1013.2
20260902185239 0 11 0.0 0.0 0.00 0.00 0.00 100 1013.2
20260902185211 0 12 0.0 0.0 0.00 0.00 0.00 100 1013.2
20260902184407 0 13 0.0 0.0 0.00 0.00 0.00 100 1013.2
20260902184038 0 0 0.0 0.0 0.00 0.00 0.00 100 1013.2
20260902183038 0 0 0.0 0.0 0.00 0.00 0.00 100 1013.2
20260902182038 0 0 0.0 0.0 0.00 0.00 0.00 100 1013.2
20260902181038 0 0 0.0 0.0 0.00 0.00 0.00 100 1013.2
20260902180038 0 0 0.0 0.0 0.00 0.00 0.00 100 1013.2
20260902175038 0 0 0.0 0.0 0.00 0.00 0.00 100 1013.2
20260902174038 0 0 0.0 0.0 0.00 0.00 0.00 100 1013.2
20260902173038 0 0 0.0 0.0 0.00 0.00 0.00 100 1013.2
20260902172038 0 0 0.0 0.0 0.00 0.00 0.00 100 1013.2
20260902171038 0 0 0.0 0.0 0.00 0.00 0.00 100 1013.2
20260902170030 0 14 0.0 0.0 0.00 0.00 0.00 100 1013.2
20260902165945 0 19 0.0 0.0 0.00 0.00 0.00 100 1013.2
20260902134357 25 0 0.0 0.0 0.00 0.00 0.00 100 1021.6
20260902133357 25 0 0.0 0.0 0.00 0.00 0.00 100 1021.6
20260902132357 25 0 0.0 0.0 0.00 0.00 0.00 100 1021.7
20260902131357 25 0 0.0 0.0 0.00 0.00 0.00 100 1021.8
20260902130357 25 0 0.0 0.0 0.00 0.00 0.00 100 1021.7
20260902125357 25 0 0.0 0.0 0.00 0.00 0.00 100 1021.9
20260902124357 25 0 0.0 0.0 0.00 0.00 0.00 100 1022.0
20260902123357 25 0 0.0 0.0 0.00 0.00 0.00 100 1022.2
20260902122357 25 0 0.0 0.0 0.00 0.00 0.00 100 1022.2
20260902121357 25 0 0.0 0.0 0.00 0.00 0.00 100 1022.3
20260902120357 25 0 0.0 0.0 0.00 0.00 0.00 100 1022.4
20260902115357 24 0 0.0 0.0 0.00 0.00 0.00 100 1022.4
20260902114357 24 0 0.0 0.0 0.00 0.00 0.00 100 1022.5
20260902113357 24 0 0.0 0.0 0.00 0.00 0.00 100 1022.5
20260902112357 24 0 0.0 0.0 0.00 0.00 0.00 100 1022.5
20260902111357 24 0 0.0 0.0 0.00 0.00 0.00 100 1022.6
20260902110356 24 0 0.0 0.0 0.00 0.00 0.00 100 1022.6
20260902105356 24 0 0.0 0.0 0.00 0.00 0.00 100 1022.7
20260902104356 23 0 0.0 0.0 0.00 0.00 0.00 100 1022.8
20260902102356 23 0 0.0 0.0 0.00 0.00 0.00 100 1023.0
20260902100356 23 0 0.0 0.0 0.00 0.00 0.00 100 1023.2
20260902095356 23 0 0.0 0.0 0.00 0.00 0.00 100 1023.2
20260902093356 23 0 0.0 0.0 0.00 0.00 0.00 100 1023.2
20260902092356 23 0 0.0 0.0 0.00 0.00 0.00 100 1023.3